GW1682 Weather Reports


time (UTC)temp
F
wind
direction
speed
knots
gust
knots
rain 1hr
in
rain 24hr
in
rain mn
in
humidity
%
barometer
mb
20260508003358 65 0 0.0 0.0 0.00 0.00 0.00 53 1016.5
20260508001925 65 350 0.0 0.0 0.00 0.00 0.00 53 1016.6
20260508000357 65 0 0.0 0.0 0.00 0.00 0.00 53 1016.6
20260507234916 65 298 0.0 1.7 0.00 0.00 0.00 52 1016.8
20260507233352 65 0 0.0 1.7 0.00 0.00 0.00 51 1017.1
20260507231904 65 343 0.0 0.0 0.00 0.00 0.00 51 1017.3
20260507230355 66 13 0.0 0.0 0.00 0.00 0.00 51 1017.1
20260507224859 66 0 0.0 1.7 0.00 0.00 0.00 50 1017.4
20260507223354 66 348 0.0 1.7 0.00 0.00 0.00 48 1017.4
20260507221850 66 338 1.7 2.6 0.00 0.00 0.00 49 1017.5
20260507220418 67 171 0.0 1.7 0.00 0.00 0.00 52 1017.6
20260507214851 67 243 0.0 1.7 0.00 0.00 0.00 50 1018.0
20260507213346 67 255 0.0 1.7 0.00 0.00 0.00 48 1018.0
20260507211847 67 258 0.0 1.7 0.00 0.00 0.00 47 1018.0
20260507210355 67 237 0.0 5.2 0.00 0.00 0.00 45 1018.1
20260507204852 68 209 1.7 4.3 0.00 0.00 0.00 40 1017.9
20260507203352 68 235 0.9 3.5 0.00 0.00 0.00 40 1018.2
20260507200358 68 0 0.0 1.7 0.00 0.00 0.00 48 1018.0
20260507194855 68 330 0.0 3.5 0.00 0.00 0.00 48 1018.1
20260507193350 68 293 0.9 2.6 0.00 0.00 0.00 48 1017.9
20260507191849 69 326 0.9 1.7 0.00 0.00 0.00 45 1017.6
20260507190354 69 27 0.0 4.3 0.00 0.00 0.00 40 1017.5
20260507184849 69 202 1.7 3.5 0.00 0.00 0.00 37 1017.8
20260507183349 69 235 1.7 3.5 0.00 0.00 0.00 36 1017.5
20260507181846 70 221 0.9 2.6 0.00 0.00 0.00 40 1017.6
20260507180347 70 254 0.0 1.7 0.00 0.00 0.00 41 1017.5
20260507174846 70 171 0.9 3.5 0.00 0.00 0.00 40 1017.4
20260507171846 71 159 0.9 4.3 0.00 0.00 0.00 37 1017.5
20260507170346 72 157 0.9 4.3 0.00 0.00 0.00 33 1017.0
20260507164849 72 209 1.7 3.5 0.00 0.00 0.00 34 1016.8
20260507163346 72 209 1.7 3.5 0.00 0.00 0.00 35 1016.8
20260507161845 73 228 0.9 3.5 0.00 0.00 0.00 36 1017.1
20260507160345 73 316 0.0 5.2 0.00 0.00 0.00 34 1017.0
20260507154849 73 195 1.7 6.1 0.00 0.00 0.00 33 1017.1
20260507153344 73 166 2.6 8.7 0.00 0.00 0.00 33 1017.2
20260507151847 74 240 1.7 6.1 0.00 0.00 0.00 33 1017.5
20260507150347 74 149 1.7 6.1 0.00 0.00 0.00 34 1017.4
20260507144849 73 269 4.3 7.8 0.00 0.00 0.00 35 1017.3
20260507143344 74 216 2.6 8.7 0.00 0.00 0.00 35 1017.4
20260507141844 74 207 3.5 8.7 0.00 0.00 0.00 33 1017.3
20260507134843 76 231 2.6 11.3 0.00 0.00 0.00 31 1016.9
20260507133340 76 214 3.5 8.7 0.00 0.00 0.00 31 1016.7
20260507131839 76 166 2.6 7.8 0.00 0.00 0.00 31 1016.7
20260507130340 76 203 1.7 6.1 0.00 0.00 0.00 32 1017.0
20260507124840 75 241 1.7 6.1 0.00 0.00 0.00 34 1017.1
20260507121832 75 173 2.6 7.8 0.00 0.00 0.00 38 1017.4
20260507120333 77 272 1.7 6.1 0.00 0.00 0.00 35 1017.4
20260507113332 76 190 1.7 6.1 0.00 0.00 0.00 51 1017.5
20260507111835 75 237 1.7 9.6 0.00 0.00 0.00 51 1017.8
20260507110331 75 219 2.6 6.1 0.00 0.00 0.00 51 1017.5
20260507104836 76 243 2.6 7.8 0.00 0.00 0.00 43 1017.8
20260507101833 76 238 2.6 7.8 0.00 0.00 0.00 41 1017.0
20260507100335 74 200 0.9 6.1 0.00 0.00 0.00 64 1017.2
20260507094836 73 264 1.7 6.1 0.00 0.00 0.00 66 1017.3
20260507093335 73 196 1.7 6.1 0.00 0.00 0.00 63 1017.3
20260507090334 72 272 0.9 3.5 0.00 0.00 0.00 63 1017.2
20260507084843 72 250 0.9 4.3 0.00 0.00 0.00 62 1017.3
20260507083337 72 250 0.9 4.3 0.00 0.00 0.00 59 1017.2
20260507081838 71 155 0.9 4.3 0.00 0.00 0.00 61 1017.1
20260507080336 71 235 0.9 3.5 0.00 0.00 0.00 58 1017.2
20260507074837 71 221 1.7 3.5 0.00 0.00 0.00 56 1017.1
20260507073337 70 144 0.9 4.3 0.00 0.00 0.00 54 1016.8
20260507071836 70 262 1.7 3.5 0.00 0.00 0.00 55 1016.8
20260507064834 69 221 1.7 7.8 0.00 0.00 0.00 57 1017.1
20260507063336 68 241 1.7 4.3 0.00 0.00 0.00 58 1017.0
20260507061834 67 234 2.6 6.1 0.00 0.00 0.00 57 1016.9
20260507060334 68 235 0.9 5.2 0.00 0.00 0.00 54 1016.9
20260507054833 68 176 0.0 1.7 0.00 0.00 0.00 54 1016.7
20260507053334 66 347 0.9 0.9 0.00 0.00 0.00 57 1016.2
20260507051832 65 0 0.0 1.7 0.00 0.00 0.00 57 1016.1
20260507050331 63 0 0.9 1.7 0.00 0.00 0.00 60 1016.1
20260507041829 60 121 0.0 0.0 0.00 0.00 0.00 66 1016.1
20260507040329 60 121 0.0 1.7 0.00 0.00 0.00 66 1016.1
20260507034829 60 148 0.0 1.7 0.00 0.00 0.00 66 1016.2
20260507033329 60 148 0.0 1.7 0.00 0.00 0.00 66 1016.1
20260507031829 60 147 0.0 1.7 0.00 0.00 0.00 68 1016.0
20260507030326 60 157 0.0 1.7 0.00 0.00 0.00 70 1015.9
20260507024832 60 157 0.0 0.9 0.00 0.00 0.00 71 1015.9
20260507023331 60 157 0.0 0.9 0.00 0.00 0.00 68 1015.8
20260507021823 60 155 0.9 1.7 0.00 0.00 0.00 68 1015.8
20260507013326 61 149 1.7 2.6 0.00 0.00 0.00 60 1015.6
20260507011829 61 145 1.7 2.6 0.00 0.00 0.00 58 1015.4
20260507010325 61 151 0.0 1.7 0.00 0.00 0.00 57 1015.1
20260507004826 61 155 1.7 1.7 0.00 0.00 0.00 58 1015.2